Waarnemingen

Advertentie
Mijn weer
St. Mary's, Groot Brittannië (3803): temperatuur & dauwpunt: 13.06.2018 01:00:00 - 19.06.2018 01:00:00 (BST)St. Mary's, Groot Brittannië (3803): temperatuur -20cm: 13.06.2018 01:00:00 - 19.06.2018 01:00:00 (BST)St. Mary's, Groot Brittannië (3803): windsnelheid & windstoten: 13.06.2018 01:00:00 - 19.06.2018 01:00:00 (BST)St. Mary's, Groot Brittannië (3803): windrichting: 13.06.2018 01:00:00 - 19.06.2018 01:00:00 (BST)St. Mary's, Groot Brittannië (3803): luchtdruk: 13.06.2018 01:00:00 - 19.06.2018 01:00:00 (BST)St. Mary's, Groot Brittannië (3803): zicht: 13.06.2018 01:00:00 - 19.06.2018 01:00:00 (BST)St. Mary's, Groot Brittannië (3803): neerslag: 13.06.2018 01:00:00 - 19.06.2018 01:00:00 (BST)
Datum & Tijd tt [°C] td [°C] tt -20cm [°C] ff [km/u] ff [kn] fx [km/u] fx [kn] dd ppp [hPa] vv [km] rr [mm]
19.06.2018 01:00:00 - - - - - - - - - - -
19.06.2018 00:00:00 15,2 14,8 - 24 13 - - WZW 1024,5 7 0,0
18.06.2018 23:00:00 15,2 14,8 - 24 13 - - WZW 1024,7 8 0,0
18.06.2018 22:00:00 15,4 14,9 - 24 13 - - WZW 1024,2 9 0,0
18.06.2018 21:00:00 15,6 15,0 - 28 15 - - WZW 1024,0 8 0,0
18.06.2018 20:00:00 15,8 15,2 - 29 16 - - ZW 1023,4 9 0,0
18.06.2018 19:00:00 16,0 15,3 - 29 16 - - ZW 1023,5 5 0,0
18.06.2018 18:00:00 16,4 15,3 - 29 16 - - ZW 1023,3 4,0 0,0
18.06.2018 17:00:00 16,8 15,3 - 29 16 - - ZW 1023,4 8 0,0
18.06.2018 16:00:00 18,3 15,7 - 22 12 - - ZW 1023,1 10 0,0
18.06.2018 15:00:00 18,1 16,0 - 26 14 - - WZW 1023,2 35 0,0
18.06.2018 14:00:00 17,7 16,0 - 24 13 - - WZW 1023,0 4,5 0,0
18.06.2018 13:00:00 17,7 15,9 - 26 14 - - WZW 1023,0 4,0 0,0
18.06.2018 12:00:00 16,8 16,0 - 24 13 - - WZW 1023,0 4,0 0,0
18.06.2018 11:00:00 15,6 15,0 - 26 14 - - WZW 1022,8 0,9 0,0
18.06.2018 10:00:00 15,7 14,7 16,9 24 13 - - ZW 1022,6 10 0,0
18.06.2018 09:00:00 15,6 14,6 - 21 11 - - WZW 1022,4 10 0,0
18.06.2018 08:00:00 14,9 13,7 - 22 12 - - W 1022,1 10 0,0
18.06.2018 07:00:00 14,1 12,7 - 22 12 - - W 1021,8 27 0,0
18.06.2018 06:00:00 13,7 11,9 - 24 13 - - W 1021,2 23 0,0
18.06.2018 05:00:00 13,7 12,1 - 18 10 - - W 1020,9 16 0,0
18.06.2018 04:00:00 13,8 12,3 - 21 11 - - W 1020,8 15 0,0
18.06.2018 03:00:00 13,9 12,1 - 18 10 - - W 1020,6 24 0,0
18.06.2018 02:00:00 13,8 12,3 - 26 14 - - W 1020,6 25 0,0
18.06.2018 01:00:00 13,7 13,1 - 28 15 - - W 1020,4 7 0,0
18.06.2018 00:00:00 14,2 13,3 - 26 14 - - W 1020,0 16 0,0
17.06.2018 23:00:00 14,2 12,3 - 26 14 - - W 1020,0 29 0,0
17.06.2018 22:00:00 14,7 13,4 - 26 14 - - W 1019,4 16 0,0
17.06.2018 21:00:00 15,1 13,0 - 26 14 - - W 1018,6 24 0,0
17.06.2018 20:00:00 15,0 13,5 - 26 14 - - W 1018,6 26 0,0
17.06.2018 19:00:00 16,3 14,0 - 29 16 - - W 1018,1 19 0,0
17.06.2018 18:00:00 16,3 14,4 - 28 15 - - W 1017,8 24 0,0
17.06.2018 17:00:00 16,1 15,1 - 26 14 - - W 1017,1 10 0,0
17.06.2018 16:00:00 15,9 15,2 - 26 14 - - W 1017,2 16 0,0
17.06.2018 15:00:00 15,9 15,6 - 22 12 - - WZW 1016,8 6 0,2
17.06.2018 14:00:00 15,6 15,2 - 24 13 - - WZW 1016,5 4,9 0,0
17.06.2018 13:00:00 16,3 15,5 - 24 13 - - WZW 1016,3 12 0,0
17.06.2018 12:00:00 16,0 15,4 - 24 13 46 25 WZW 1016,1 9 0,0
17.06.2018 11:00:00 16,3 16,0 - 29 16 - - WZW 1015,7 12 0,0
17.06.2018 10:00:00 14,7 14,5 17,2 37 20 50 27 ZW 1015,8 11 0,2
17.06.2018 09:00:00 13,9 13,6 - 41 22 50 27 ZW 1016,0 2,8 0,2
17.06.2018 08:00:00 13,1 12,7 - 35 19 48 26 ZW 1016,2 4,7 0,6
17.06.2018 07:00:00 13,3 12,2 - 31 17 - - ZW 1016,6 4,6 0,4
17.06.2018 06:00:00 13,8 11,9 - 29 16 - - ZW 1016,5 19 0,0
17.06.2018 05:00:00 13,8 11,1 - 28 15 - - ZW 1017,1 22 0,0
17.06.2018 04:00:00 13,7 10,8 - 26 14 - - ZW 1017,2 30 0,0
17.06.2018 03:00:00 13,5 10,1 - 21 11 - - WZW 1017,9 35 0,0
17.06.2018 02:00:00 13,5 11,1 - 21 11 - - WZW 1018,2 29 0,0
17.06.2018 01:00:00 13,7 10,0 - 22 12 - - W 1018,5 25 0,0
17.06.2018 00:00:00 13,7 10,7 - 22 12 - - W 1018,7 27 0,0
16.06.2018 23:00:00 13,6 10,2 - 21 11 - - W 1018,6 40 0,0
16.06.2018 22:00:00 13,4 10,3 - 21 11 - - W 1018,2 27 0,0
16.06.2018 21:00:00 13,6 10,7 - 21 11 - - W 1017,9 23 0,0
16.06.2018 20:00:00 14,2 11,1 - 28 15 - - W 1017,8 21 0,0
16.06.2018 19:00:00 14,4 10,8 - 24 13 - - W 1017,6 20 0,0
16.06.2018 18:00:00 16,8 12,1 - 28 15 - - W 1017,5 10 0,0
16.06.2018 17:00:00 16,0 11,8 - 26 14 - - W 1017,2 10 0,0
16.06.2018 16:00:00 16,8 11,8 - 29 16 46 25 W 1016,9 10 0,0
16.06.2018 15:00:00 16,1 11,3 - 26 14 - - W 1016,6 10 0,0
16.06.2018 14:00:00 15,7 11,4 - 24 13 - - W 1016,3 10 0,0
16.06.2018 13:00:00 15,4 10,8 - 22 12 - - W 1015,7 10 0,0
16.06.2018 12:00:00 15,6 10,2 - 28 15 - - W 1015,5 10 0,0
16.06.2018 11:00:00 15,3 11,9 - 29 16 46 25 W 1014,8 10 0,0
16.06.2018 10:00:00 15,0 12,4 17,7 31 17 52 28 W 1014,0 10 0,0
16.06.2018 09:00:00 15,0 13,6 - 31 17 - - WZW 1013,0 10 0,0
16.06.2018 08:00:00 14,4 13,9 - 39 21 55 30 ZW 1012,5 10 0,0
16.06.2018 07:00:00 13,8 13,5 - 44 24 54 29 ZZW 1012,5 5 0,2
16.06.2018 06:00:00 13,3 12,8 - 37 20 50 27 ZZW 1013,0 9 0,4
16.06.2018 05:00:00 13,0 11,8 - 34 18 46 25 ZZW 1013,6 4,1 0,0
16.06.2018 04:00:00 13,9 11,4 - 28 15 - - ZZW 1014,0 30 0,0
16.06.2018 03:00:00 13,6 10,7 - 29 16 - - ZW 1014,6 35 0,0
16.06.2018 02:00:00 13,5 11,1 - 29 16 - - ZW 1015,3 35 0,0
16.06.2018 01:00:00 13,3 11,3 - 24 13 - - ZW 1016,0 28 0,4
16.06.2018 00:00:00 13,1 10,9 - 26 14 - - ZW 1016,5 13 0,4
15.06.2018 23:00:00 13,9 9,7 - 26 14 - - ZW 1017,1 45 0,0
15.06.2018 22:00:00 13,8 9,6 - 21 11 - - ZZW 1016,7 50 0,0
15.06.2018 21:00:00 14,0 8,5 - 18 10 - - ZW 1017,4 50 0,0
15.06.2018 20:00:00 14,1 9,0 - 16 9 - - WZW 1018,0 35 0,0
15.06.2018 19:00:00 15,9 9,7 - 15 8 - - WZW 1018,1 30 0,0
15.06.2018 18:00:00 17,1 11,0 - 15 8 - - WZW 1018,3 10 0,0
15.06.2018 17:00:00 16,2 11,5 - 11 6 - - WZW 1018,8 10 0,0
15.06.2018 16:00:00 15,6 10,8 - 15 8 - - WZW 1019,2 10 0,0
15.06.2018 15:00:00 17,8 11,8 - 15 8 - - WZW 1019,2 10 0,0
15.06.2018 14:00:00 16,0 10,8 - 18 10 - - WZW 1019,6 10 0,0
15.06.2018 13:00:00 15,7 11,2 - 18 10 - - WNW 1019,6 10 0,0
15.06.2018 12:00:00 15,9 11,8 - 21 11 - - W 1019,3 10 0,0
15.06.2018 11:00:00 14,9 11,8 - 15 8 - - W 1019,5 10 0,0
15.06.2018 10:00:00 15,4 11,9 17,7 16 9 - - W 1019,2 10 0,0
15.06.2018 09:00:00 15,4 11,1 - 16 9 - - W 1019,2 10 0,0
15.06.2018 08:00:00 14,0 11,6 - 11 6 - - WNW 1019,0 10 0,0
15.06.2018 07:00:00 13,8 11,4 - 9 5 - - WNW 1018,7 18 0,0
15.06.2018 06:00:00 13,1 11,0 - 9 5 - - WNW 1018,6 17 0,0
15.06.2018 05:00:00 13,4 10,6 - 15 8 - - W 1018,6 35 0,0
15.06.2018 04:00:00 13,0 10,4 - 15 8 - - W 1018,8 30 0,0
15.06.2018 03:00:00 11,8 9,8 - 11 6 - - W 1019,0 21 0,0
15.06.2018 02:00:00 12,5 10,3 - 15 8 - - W 1019,2 25 0,0
15.06.2018 01:00:00 12,9 10,5 - 15 8 - - WNW 1019,5 19 0,0
15.06.2018 00:00:00 12,6 10,2 - 13 7 - - WNW 1019,2 20 0,0
14.06.2018 23:00:00 12,6 10,3 - 13 7 - - WNW 1019,2 18 0,0
14.06.2018 22:00:00 13,3 11,0 - 15 8 - - WNW 1019,1 13 0,0
14.06.2018 21:00:00 14,0 10,2 - 15 8 - - WNW 1018,7 15 0,0
14.06.2018 20:00:00 15,2 10,5 - 18 10 - - WNW 1018,6 11 0,0
14.06.2018 19:00:00 15,8 11,3 - 21 11 - - WNW 1018,1 11 0,0
14.06.2018 18:00:00 16,3 11,8 - 22 12 - - WNW 1018,0 10 0,0
14.06.2018 17:00:00 16,8 12,0 - 26 14 - - WNW 1017,6 10 0,0
14.06.2018 16:00:00 17,0 11,9 - 28 15 - - WNW 1017,4 10 0,0
14.06.2018 15:00:00 17,3 12,3 - 24 13 - - WNW 1016,8 10 0,0
14.06.2018 14:00:00 17,4 11,7 - 26 14 - - WNW 1016,4 10 0,0
14.06.2018 13:00:00 17,0 10,7 - 26 14 - - WNW 1016,2 10 0,0
14.06.2018 12:00:00 15,5 11,1 - 26 14 - - WNW 1015,7 10 0,0
14.06.2018 11:00:00 16,1 11,3 - 29 16 46 25 WNW 1014,3 10 0,0
14.06.2018 10:00:00 15,6 11,3 18,0 31 17 48 26 WNW 1013,9 10 0,0
14.06.2018 09:00:00 15,1 11,2 - 31 17 50 27 WNW 1013,4 10 0,0
14.06.2018 08:00:00 14,8 11,6 - 34 18 54 29 W 1012,4 10 0,0
14.06.2018 07:00:00 14,6 12,3 - 41 22 61 33 W 1011,5 14 0,0
14.06.2018 06:00:00 14,4 14,0 - 37 20 57 31 W 1010,8 13 0,2
14.06.2018 05:00:00 15,4 15,2 - 46 25 61 33 ZW 1010,8 3,1 0,4
14.06.2018 04:00:00 15,2 14,9 - 46 25 63 34 ZW 1010,9 10 0,2
14.06.2018 03:00:00 15,0 14,4 - 46 25 63 34 ZZW 1011,3 4,3 0,0
14.06.2018 02:00:00 15,1 14,1 - 48 26 67 36 ZW 1012,3 16 0,0
14.06.2018 01:00:00 15,0 13,7 - 42 23 59 32 ZW 1013,1 17 0,0
14.06.2018 00:00:00 15,1 13,4 - 44 24 54 29 ZW 1014,0 23 0,0
13.06.2018 23:00:00 15,1 13,1 - 39 21 48 26 ZZW 1014,8 26 0,0
13.06.2018 22:00:00 14,9 12,5 - 31 17 46 25 ZW 1015,5 28 0,0
13.06.2018 21:00:00 15,1 12,5 - 35 19 50 27 ZW 1016,0 30 0,0
13.06.2018 20:00:00 15,3 12,2 - 34 18 - - ZW 1016,5 45 0,0
13.06.2018 19:00:00 15,5 12,0 - 31 17 - - ZW 1016,9 50 0,0
13.06.2018 18:00:00 16,4 12,8 - 29 16 - - ZW 1017,4 10 0,0
13.06.2018 17:00:00 16,1 12,5 - 28 15 - - ZW 1018,2 10 0,0
13.06.2018 16:00:00 17,9 13,2 - 28 15 - - WZW 1018,8 10 0,0
13.06.2018 15:00:00 17,0 12,7 - 22 12 - - WZW 1019,0 10 0,0
13.06.2018 14:00:00 18,0 13,0 - 21 11 - - WZW 1019,6 10 0,0
13.06.2018 13:00:00 18,0 12,8 - 16 9 - - ZW 1019,9 10 0,0
13.06.2018 12:00:00 18,3 12,7 - 18 10 - - WZW 1020,3 10 0,0
13.06.2018 11:00:00 17,1 12,2 - 15 8 - - WZW 1020,4 10 0,0
13.06.2018 10:00:00 17,2 12,9 18,0 15 8 - - W 1020,5 10 0,0
13.06.2018 09:00:00 15,9 12,4 - 16 9 - - WNW 1020,5 10 0,0
13.06.2018 08:00:00 15,7 13,7 - 11 6 - - WNW 1020,4 10 0,0
13.06.2018 07:00:00 14,6 13,8 - 8 4 - - NW 1019,9 25 0,0
13.06.2018 06:00:00 13,6 13,0 - 11 6 - - NW 1020,0 27 0,0
13.06.2018 05:00:00 13,6 12,8 - 13 7 - - NW 1020,3 18 0,0
13.06.2018 04:00:00 14,0 12,7 - 16 9 - - NNW 1020,5 27 0,0
13.06.2018 03:00:00 14,1 12,5 - 21 11 - - NW 1021,0 35 0,0
13.06.2018 02:00:00 14,0 12,6 - 18 10 - - NW 1021,1 24 0,0
13.06.2018 01:00:00 14,1 13,0 - 21 11 - - NNW 1021,2 24 0,0

tt = temperatuur
td = dauwpunt
tt -20cm = temperatuur -20cm
ff = windsnelheid
fx = windstoten
dd = windrichting
ppp = luchtdruk
vv = zicht
rr = neerslag

Weerstations in de omgeving